Home > Time Zones > World Clock > Weather > Togo > Lomé > Past weeks

Flag for Togo Weather past 2 weeks in Lomé, Togo

Now
75 °F

Partly sunny.


Feels Like: 75 °F
Forecast: 73 / 82 °F
Wind: 10 mph from Southwest

Location: Lome Airport

Current Time: Jul 30, 2015 at 6:58:00 AM

Latest Report: Jul 30, 2015 at 6:00 AM


Visibility: N/A

Pressure: 29.98 "Hg

Humidity: 89%

Dew point: 72 °F

Location of LoméLocation

Historic Weather in Lomé — Graph

°F

Lomé temperature yesterday

Maximum temperature yesterday: 84 °F (at 11:00 AM)
Minimum temperature yesterday: 73 °F (at 1:00 AM)
Average temperature yesterday: 78 °F

Past Weeks' High & Low Weather Summary

 TemperatureHumidityPressure
High86 °F (Jul 17, 2:00 PM)100% (Jul 15, 5:00 AM)30.07 "Hg (Jul 15, 5:00 AM)
Low73 °F (Jul 22, 2:00 AM)62% (Jul 23, 12:00 PM)29.86 "Hg (Jul 15, 3:00 PM)
Average78 °F87%29.96 "Hg
* Reported Jul 15 5:00 AM — Jul 30 5:00 AM, Lomé, Weather by CustomWeather, © 2015

Note: Actual official high and low records may vary slightly from our data, if they occured in-between our weather recording intervals... More about our weather records

Advertising

Lomé weather history for previous 24 hours

 ConditionsComfort  
Time TempWeatherWind HumidityBarometerVisibility
5:00 AM
Thu, Jul 30
75 °FPassing clouds.9 mph89%29.98 "HgN/A
4:00 AM75 °FPassing clouds.9 mph94%29.98 "HgN/A
3:00 AM75 °FPassing clouds.8 mph89%29.98 "HgN/A
2:00 AM75 °FPassing clouds.6 mph89%29.98 "HgN/A
1:00 AM75 °FPassing clouds.7 mph94%30.01 "HgN/A
12:00 AM75 °FPassing clouds.10 mph94%30.01 "HgN/A
11:00 PM
Wed, Jul 29
75 °FPassing clouds.13 mph94%30.04 "HgN/A
10:00 PM75 °FPassing clouds.13 mph94%30.01 "HgN/A
9:00 PM75 °FPassing clouds.10 mph94%30.01 "HgN/A
8:00 PM75 °FPassing clouds.13 mph94%29.98 "HgN/A
7:00 PM75 °FPassing clouds.13 mph89%29.98 "HgN/A
6:00 PM77 °FPassing clouds.14 mph83%29.95 "HgN/A
5:00 PM81 °FPassing clouds.14 mph74%29.95 "HgN/A
4:00 PM82 °FPassing clouds.16 mph70%29.92 "HgN/A
3:00 PM82 °FPassing clouds.15 mph70%29.95 "HgN/A
2:00 PM82 °FPassing clouds.16 mph70%29.98 "HgN/A
1:00 PM82 °FScattered clouds.15 mph70%30.01 "HgN/A
12:00 PM84 °FPassing clouds.14 mph66%30.04 "HgN/A
11:00 AM84 °FScattered clouds.9 mph66%30.07 "HgN/A
10:00 AM82 °FScattered clouds.9 mph66%30.07 "HgN/A
9:00 AM79 °FPartly sunny.10 mph74%30.07 "HgN/A
8:00 AM77 °FScattered clouds.7 mph83%30.07 "HgN/A
7:00 AM75 °FScattered clouds.7 mph89%30.04 "Hg5 mi
6:00 AM75 °FPartly sunny.8 mph89%30.04 "HgN/A
Weather by CustomWeather, © 2015

See weather overviewHow to use our weather pages